Location: Breudijk
(52.1022°N, 4.9574°E)
Time: 06:48:16
(UTC+00:00)

Daily predictions for brighter satellites

Satellite Brightness Start Highest point End
(mag) Time Altitude Azimuth Time Altitude Azimuth Time Altitude Azimuth
Meteor 2-14 Rocket 4.5 16:46:29 10° N 16:52:38 67° ENE 16:58:44 10° SSE
Cosmos 2219 3.5 16:47:47 10° NNW 16:53:25 52° NE 16:59:03 10° SE
CZ-2C R/B 4.2 16:50:28 10° ESE 16:55:07 26° ENE 16:59:41 10° N
SMAP 3.1 16:50:47 10° SSE 16:55:27 87° ENE 17:00:09 10° NNW
Cosmos 1943 Rocket 3.7 16:52:44 10° WSW 16:57:38 31° NW 17:02:32 10° NNE
Cosmos 1758 Rocket 3.6 16:53:45 10° N 16:58:12 86° ENE 17:02:35 10° S
Cosmos 1726 Rocket 4.2 16:54:21 10° SSE 16:58:15 33° E 17:02:12 10° NNE
NOSS 2-1 (E) 4.0 16:55:46 10° WSW 16:59:01 45° NW 17:02:49 10° NE
Meteor 2-21 4.4 16:53:09 10° N 16:59:22 78° E 17:05:28 10° SSE
Cosmos 1328 4.0 16:55:49 10° NNW 16:59:47 79° W 17:03:43 10° S
USA 307 3.0 16:55:43 10° WNW 17:00:01 74° N 17:04:19 10° E
Cosmos 2082 4.5 16:56:43 10° NNW 17:01:53 33° NE 17:07:02 10° ESE
Cosmos 1726 4.0 16:59:24 10° SW 17:02:49 33° WNW 17:06:14 10° N
CZ-4B R/B 1.8 17:01:33 10° NNE 17:04:37 37° E 17:07:35 10° SSE
USA 308 2.9 17:00:33 10° WNW 17:04:51 75° N 17:09:09 10° E
Cosmos 2228 3.2 17:01:09 10° SSE 17:05:14 49° E 17:09:23 10° NNE
Cosmos 2278 Rocket 4.4 17:02:55 10° NW 17:05:32 13° NNW 17:08:09 10° NNE
YAOGAN 6 3.4 17:02:06 10° S 17:05:42 57° W 17:09:22 10° NNW
Cosmos 1939 Rocket 3.3 17:02:44 10° SE 17:06:24 38° ENE 17:10:03 10° N
ATLAS 5 CENTAUR R/B 2.9 17:03:42 10° W 17:07:42 35° NNW 17:12:18 10° NE
Cosmos 1452 Rocket 3.9 17:05:41 10° SSW 17:10:56 70° WNW 17:16:15 10° NNE
Helios 1A Rocket 3.5 17:09:53 10° SE 17:13:38 35° ENE 17:17:23 10° N
Cosmos 1606 Rocket 3.6 17:09:29 10° S 17:13:46 57° E 17:18:07 10° NNE
FALCON 9 DEB 4.5 17:13:14 10° SSW 17:15:51 23° SE 17:17:56 13° E
CZ-4B R/B 3.9 17:12:06 10° S 17:17:38 60° WSW 17:23:06 10° NNW
ARGOS 4.3 17:14:32 10° ESE 17:18:40 23° NE 17:22:49 10° N
SKYMED 2 4.3 17:14:44 10° NNE 17:18:41 33° E 17:22:37 10° SSE
Cosmos 1689 Rocket 3.2 17:17:37 10° NE 17:19:58 22° E 17:22:20 10° SSE
Okean-O 3.1 17:16:01 10° SE 17:20:07 38° ENE 17:24:13 10° N
Cosmos 1656 4.5 17:17:56 10° SSE 17:22:39 29° ESE 17:27:26 10° NE
Cosmos 1745 Rocket 4.5 17:17:27 10° N 17:23:18 39° ENE 17:29:10 10° SE
Cosmos 1400 Rocket 3.4 17:21:44 10° SSE 17:25:30 36° E 17:29:16 10° NNE
Cosmos 1908 4.3 17:23:44 10° SSW 17:27:28 47° WNW 17:31:15 10° N
Cosmos 2227 Rocket 2.2 17:21:48 10° NNW 17:27:28 67° NE 17:33:06 10° SE
H-2A R/B 2.9 17:23:19 10° ESE 17:28:05 32° ENE 17:32:52 10° N
Cosmos 2058 3.7 17:24:35 10° N 17:28:13 29° ENE 17:31:50 10° SE
Meteor 2-16 Rocket 4.4 17:22:16 10° N 17:28:24 83° E 17:34:30 10° SSE
Cosmos 1892 3.2 17:26:00 10° N 17:29:39 38° ENE 17:33:18 10° SE
GEOS 3 Rocket 3.9 17:24:45 10° ESE 17:29:57 53° NE 17:35:13 10° NW
CZ-4 R/B 1.7 17:26:46 10° SE 17:30:23 38° ENE 17:33:59 10° N
Cosmos 2263 Rocket 3.5 17:28:14 10° NNW 17:32:40 22° NE 17:35:33 16° ENE
Cosmos 1408 3.4 17:30:37 10° N 17:33:48 28° ENE 17:37:01 10° SE
BREEZE-M DEB (TANK) 4.2 17:30:56 10° WSW 17:34:46 87° SSE 17:46:14 15° E
BREEZE-M R/B 4.1 17:25:12 10° W 17:34:59 64° S 17:37:08 18° ESE
Cosmos 1244 Rocket 4.4 17:29:45 10° N 17:36:00 79° E 17:42:15 10° SSE
CSL-04 Rocket 4.2 17:31:18 10° SE 17:36:22 38° ENE 17:41:23 10° N
NOSS 3-4 (A) 4.2 17:32:33 10° NW 17:38:54 45° NNE 17:44:11 17° E
NOSS 3-4 (C) 4.2 17:32:40 10° NW 17:39:00 44° NNE 17:44:16 17° E
CZ-4C R/B 3.6 17:33:40 10° NW 17:39:22 34° NNE 17:44:24 16° ENE
Cosmos 1953 Rocket 3.9 17:36:08 10° NNW 17:40:32 71° W 17:44:57 10° S
Cosmos 1300 2.6 17:40:01 10° S 17:43:50 89° WNW 17:47:40 10° N
SL-4 R/B 1.6 17:43:30 10° W 17:47:04 84° S 17:49:04 26° E
Cosmos 2058 Rocket 3.1 17:42:43 10° S 17:47:09 63° E 17:51:38 10° NNE
Cosmos 1697 Rocket 3.6 17:42:47 10° SSE 17:47:17 25° ESE 17:49:37 19° ENE
Cosmos 1331 Rocket 4.0 17:42:38 10° SSW 17:47:48 81° WNW 17:53:00 10° NNE
Cosmos 1346 Rocket 3.0 17:44:42 10° N 17:48:35 47° ENE 17:52:26 10° SSE
IRS-1C Rocket 4.2 17:43:56 10° SSE 17:49:12 83° WSW 17:54:32 10° NNW
CZ-2D R/B 3.1 17:45:29 10° SSE 17:49:17 78° ENE 17:53:06 10° N
SeaSat 1 3.0 17:46:27 19° ESE 17:49:34 39° NE 17:54:09 10° NNW
USA 305 2.9 17:46:26 10° WNW 17:50:45 82° SSW 17:53:27 22° ESE
Cosmos 1825 3.0 17:47:26 10° N 17:50:49 29° ENE 17:51:38 27° E
Cosmos 44 3.1 17:50:43 10° SW 17:55:15 79° SE 17:59:04 16° NE
USA 215 3.4 17:51:39 20° E 17:56:18 63° N 18:02:45 10° WNW
Cosmos 1315 Rocket 3.7 17:53:18 10° SSE 17:56:20 28° ESE 17:56:20 28° ESE
USA 306 2.9 17:52:51 10° WNW 17:57:09 78° SSW 17:59:35 25° ESE
SAR-Lupe-4 3.6 17:54:32 10° NNE 17:58:08 82° WNW 18:01:43 10° SSW
ERS-2 3.2 17:54:40 10° N 17:58:11 47° WNW 18:01:42 10° SW
SJ-11-01 4.5 17:54:40 10° SE 17:59:09 48° ENE 18:03:40 10° N
BREEZE-M R/B 3.6 17:57:13 10° W 18:00:59 68° S 18:05:18 23° ESE
ATLAS 2AS CENTAUR R/B 3.3 17:53:36 10° NW 18:01:04 48° NNE 18:05:16 24° E
Cosmos 968 Rocket 3.5 17:57:38 10° NNW 18:02:54 87° WSW 18:08:05 10° SSE
Cosmos 1340 3.1 17:59:45 10° NNW 18:03:31 62° W 18:07:13 10° S
SJ 16-02 3.6 18:03:26 10° NNE 18:04:08 11° NNE 18:04:08 11° NNE
COSMO-SKYMED 1 2.5 18:02:32 10° NNE 18:06:56 90° W 18:11:16 10° SSW
Cosmos 2297 Rocket 2.8 18:01:43 10° NW 18:07:19 60° WSW 18:12:51 10° SSE
HJ-1C 3.7 18:07:27 42° ENE 18:07:27 42° ENE 18:10:34 10° N
MOS 1 Rocket 3.8 18:03:15 10° NNE 18:07:34 37° E 18:12:07 10° SSE
H-2A R/B 4.4 18:05:05 10° N 18:08:22 23° WNW 18:11:36 10° WSW
Cosmos 1076 Rocket 3.5 18:04:26 10° N 18:08:37 53° ENE 18:11:35 18° SSE
Cosmos 2369 Rocket 4.3 18:04:35 10° W 18:08:47 21° NNW 18:13:01 10° NNE
In-Cosmos 22 Rocket 4.3 18:04:17 10° NNW 18:09:37 72° W 18:15:02 10° S
Cosmos 1980 Rocket 3.9 18:05:57 10° SSE 18:07:19 15° SE 18:07:19 15° SE
Aureole 3 Rocket 3.4 18:08:34 10° SSW 18:12:44 81° WNW 18:18:38 10° N
Cosmos 2315 Rocket 4.5 18:10:55 10° SSE 18:16:24 34° E 18:21:54 10° NNE
CSL-04 Debris 4.1 18:11:16 10° SSE 18:16:41 74° ENE 18:22:10 10° NNW
S3M 3.9 18:10:45 10° S 18:16:45 62° E 18:22:51 10° NNE
Cosmos 1302 Rocket 4.0 18:13:31 10° SSW 18:18:48 84° WNW 18:24:08 10° NNE
SL-08 ROCKET BODY 4.5 18:13:08 10° N 18:19:16 85° W 18:25:26 10° S
Lacrosse 5 2.4 18:16:44 10° WNW 18:21:40 49° N 18:23:30 33° ENE
FALCON 9 DEB 2.9 18:18:24 10° WNW 18:21:50 88° SSW 18:22:07 74° ESE
TRACE 4.5 18:19:28 10° NNE 18:23:13 77° ESE 18:26:57 10° S
FALCON 9 DEB 3.2 18:20:34 10° WSW 18:23:30 55° S 18:23:30 55° S
ERBS 3.2 18:20:49 10° WNW 18:23:57 35° N 18:24:02 35° N
YAOGAN 1 2.7 18:20:04 10° S 18:24:23 72° WSW 18:28:44 10° NNW
Aureole 3 3.9 18:23:29 10° SSW 18:26:25 41° WNW 18:29:18 10° N
Cosmos 1417 Rocket 4.4 18:21:34 10° S 18:27:51 88° E 18:34:15 10° N
FALCON 9 DEB 3.3 18:24:45 10° WSW 18:27:30 55° SSW 18:27:30 55° SSW
Cosmos 1812 Rocket 3.9 18:27:16 10° S 18:35:45 11° NNE 18:35:50 10° NNE
Cosmos 1455 2.7 18:28:32 10° S 18:31:13 43° SSE 18:31:13 43° SSE
Cosmos 1503 Rocket 4.0 18:27:59 10° NNW 18:33:13 81° WSW 18:37:11 18° SSE
Meteor 2-3 Rocket 4.2 18:29:08 10° N 18:34:31 40° ENE 18:34:44 40° ENE
CZ-2C R/B 3.5 18:28:48 10° S 18:34:34 70° WSW 18:40:11 10° NNW
CZ-4B R/B 4.2 18:34:22 10° NNW 18:36:38 18° WNW 18:38:51 10° WSW
DMSP B5D1-3 4.4 18:32:57 10° NNE 18:38:07 70° ESE 18:43:15 10° S
FALCON 9 DEB 3.9 18:36:47 10° WSW 18:39:09 44° SW 18:39:09 44° SW
USA 307 3.5 18:35:52 10° WNW 18:40:01 51° SSW 18:40:52 43° S
Cosmos 1354 Rocket 4.1 18:39:31 10° NNW 18:44:47 75° WSW 18:47:53 25° SSE
USA 308 3.5 18:40:42 10° WNW 18:44:50 48° SSW 18:45:31 43° S
Meteor 2-10 Rocket 3.5 18:40:29 10° SSW 18:45:47 83° WNW 18:50:56 10° NNE
Cosmos 1553 Rocket 4.4 18:40:06 10° SSW 18:46:24 66° WNW 18:52:39 10° N
Cosmos 2082 4.1 18:40:44 10° NW 18:46:24 63° WSW 18:50:45 17° SSE
Cosmos 2278 Rocket 4.4 18:50:09 10° NNW 18:52:22 12° NNE 18:53:39 11° NNE
ATLAS 5 CENTAUR R/B 3.6 18:49:53 10° NW 18:53:42 23° N 18:55:00 21° NNE
Meteor 2-15 Rocket 4.4 18:48:03 10° SSW 18:54:13 85° W 19:00:25 10° N
Okean-O 4.5 18:52:44 10° SSW 18:56:40 30° W 19:00:36 10° NNW
Cosmos 2151 3.6 18:53:02 10° N 18:56:04 45° N 18:56:04 45° N
Cosmos 1992 Rocket 3.9 18:52:34 10° SSW 18:57:47 89° ESE 18:59:49 39° NNE
ARGOS 3.2 18:54:41 21° S 18:58:24 77° WSW 19:03:52 10° NNW
SL-08 RB Rocket 3.7 19:00:38 72° N 19:00:38 72° N 19:04:43 10° NNW
Cosmos 2369 3.5 18:57:03 10° SSW 19:02:43 72° ESE 19:03:11 68° E
CZ-4 R/B 3.7 19:02:25 10° SSW 19:05:33 23° W 19:08:41 10° NW
Cosmos 1656 4.1 19:00:26 10° SW 19:05:57 60° NW 19:10:04 19° NNE
Cosmos 1844 Rocket 4.1 19:01:26 10° NNW 19:05:18 24° NNE 19:05:18 24° NNE
Geosat 3.9 19:06:43 74° NE 19:07:12 89° SE 19:12:14 10° SSW
Ariane Rocket 3.0 19:07:51 65° NNE 19:07:51 65° NNE 19:12:23 10° NNW
H-2A R/B 2.9 19:02:00 10° S 19:07:17 52° W 19:12:39 10° NNW
GEOS 3 Rocket 4.5 19:05:41 29° S 19:08:03 47° SW 19:13:16 10° NW
Cosmos 2227 Rocket 4.2 19:06:29 10° NW 19:11:05 26° WSW 19:15:39 10° SSW
Cosmos 220 Rocket 4.4 19:06:46 10° SW 19:10:52 62° W 19:10:52 62° W
Cosmos 2263 Rocket 2.1 19:11:50 10° NNW 19:17:16 74° NNE 19:17:16 74° NNE
Cosmos 1825 4.2 19:23:01 10° NNW 19:26:15 27° W 19:26:28 27° W
SL-4 R/B 4.0 19:22:58 10° W 19:24:38 24° W 19:24:38 24° W
SeaSat 1 3.3 19:26:15 42° SW 19:27:03 46° WSW 19:31:49 10° NW
CZ-4C R/B 2.9 19:22:24 10° NW 19:29:08 63° NE 19:29:36 62° NE
NOSS 3-4 (A) 3.8 19:23:29 10° NW 19:30:22 77° SW 19:31:39 62° SSE
NOSS 3-4 (C) 3.8 19:23:35 10° NW 19:30:28 77° SW 19:31:43 62° SSE
Cosmos 1697 Rocket 2.9 19:25:11 10° SW 19:30:47 68° NW 19:31:25 62° NNW
Cosmos 2184 Rocket 4.2 19:25:53 10° N 19:31:04 58° NNE 19:31:04 58° NNE
DEBRIS 4.3 19:23:53 10° WSW 19:36:49 61° SSW 19:36:49 61° SSW
USA 215 3.1 19:39:00 80° S 19:39:15 81° SSW 19:45:50 10° WNW
NOSS 3-3 (A) 4.0 19:36:00 10° SW 19:41:47 79° WNW 19:41:47 79° WNW
NOSS 3-3 (C) 4.0 19:36:06 10° SW 19:41:53 79° WNW 19:41:53 79° WNW
SJ 16-02 3.7 19:40:05 10° NNW 19:41:07 16° N 19:41:07 16° N
Cosmos 2074 Rocket 4.3 19:46:08 10° N 19:51:03 58° NNW 19:51:03 58° NNW
ATLAS 2AS CENTAUR R/B 2.8 19:45:00 10° NW 19:52:33 72° SW 19:52:43 72° SW
Cosmos 1980 Rocket 4.1 19:47:47 10° SW 19:49:11 18° SW 19:49:11 18° SW
COSMOS 2455 4.2 19:51:14 10° NNW 19:55:08 29° N 19:55:08 29° N
Resurs 01 Rocket 4.4 20:02:02 12° NNW 20:02:02 12° NNW 20:02:26 10° NNW
Lacrosse 5 3.5 19:59:59 10° WNW 20:02:41 32° WNW 20:02:41 32° WNW
Cosmos 2278 Rocket 4.5 20:33:54 10° NNW 20:35:28 17° N 20:35:28 17° N
ATLAS 5 CENTAUR R/B 4.3 20:35:01 10° NW 20:36:32 18° NNW 20:36:32 18° NNW
Cosmos 2263 Rocket 4.5 20:56:35 10° NW 20:58:58 19° WNW 20:58:58 19° WNW
CZ-4C R/B 4.2 21:10:59 10° NW 21:14:47 33° WNW 21:14:47 33° WNW
